Wind_Speed
6 6 7 6 6 5 4 5 6 5 5 5 5 5 5 6 6 6 6 7 7 7 8 8 9 10 10 9 9 9 9 10 11 10 11 10 10 11 11 11 11 11 12
6 6 6 6 5 4 4 5 5 5 5 4 5 4 5 5 6 6 6 7 7 7 7 8 9 9 10 10 9 9 9 10 10 11 11 11 11 12 12 12 13 13 13
6 6 7 6 5 4 4 4 4 4 4 4 4 4 4 5 5 6 6 6 6 7 7 8 8 9 10 9 9 8 9 10 11 11 11 12 12 13 13 13 13 14 14
7 7 6 6 4 4 4 4 4 4 4 4 4 3 4 4 5 5 5 5 6 6 6 7 7 7 8 8 8 8 9 10 11 11 11 12 12 13 13 13 14 15 15
6 6 6 6 5 4 4 4 4 4 3 3 3 3 4 4 4 4 4 5 6 6 6 6 6 6 7 7 8 8 9 10 10 10 11 11 11 12 12 12 13 15 15
6 6 6 5 5 4 4 4 5 4 4 4 3 4 4 4 4 4 4 4 5 6 6 6 6 6 6 7 7 8 9 10 10 10 10 11 11 12 12 13 13 14 14
6 6 5 5 4 4 4 4 5 5 4 4 4 4 4 4 4 4 4 5 5 6 6 6 6 6 6 6 7 8 9 10 10 10 11 12 13 13 13 13 13 14 14
5 5 4 4 3 3 4 4 4 4 4 4 4 4 5 5 4 5 5 5 6 6 6 6 6 6 6 6 7 8 9 9 9 10 11 12 12 13 13 14 14 14 14
3 3 3 2 2 3 4 3 3 4 4 4 5 5 4 4 4 5 6 6 6 6 6 6 7 7 7 7 7 8 9 9 10 10 11 11 12 13 14 14 14 15 16
2 2 3 3 3 3 3 3 3 3 4 4 4 4 4 4 5 6 6 6 6 7 7 6 6 7 7 8 8 9 10 10 10 10 11 12 12 13 14 14 15 16 17
3 3 3 3 3 4 4 4 4 4 4 4 4 5 5 5 6 7 7 7 7 7 6 6 6 7 7 8 9 9 10 11 11 12 12 13 13 13 14 15 16 17 18
4 4 3 3 4 4 5 5 5 5 5 5 5 6 6 6 7 7 7 7 7 7 7 7 7 8 8 9 9 10 10 11 12 12 13 14 14 15 16 17 17 18 19
4 4 4 4 4 4 4 5 5 6 6 6 7 7 7 6 7 7 7 8 8 8 8 8 8 9 9 9 10 10 11 12 13 14 14 15 16 16 17 17 18 19 20
4 4 4 4 4 5 5 5 6 7 7 8 8 8 7 7 7 7 8 8 9 9 9 9 9 9 10 10 11 12 13 14 14 15 15 16 17 17 18 19 19 20 21
5 5 5 5 5 5 6 6 7 7 8 8 8 8 8 8 8 8 9 9 9 10 10 10 10 10 10 11 12 13 14 15 15 16 16 17 17 18 19 19 20 21 22
7 6 6 7 6 6 7 7 7 7 7 8 8 8 9 9 9 10 10 10 10 11 11 10 10 11 11 12 13 14 14 15 16 17 18 18 18 19 19 20 21 22 23
7 7 7 7 7 7 7 7 7 7 7 8 9 9 10 10 10 10 11 11 11 11 11 11 12 12 13 14 14 15 16 17 17 18 18 19 19 20 21 22 23 23 24
8 8 8 8 8 8 8 8 8 8 8 9 10 10 10 10 11 11 11 11 11 11 12 12 12 13 14 15 16 16 17 18 18 19 20 20 21 22 23 24 24 25 26
9 8 8 8 8 8 8 9 9 10 10 10 10 11 11 11 11 11 11 11 12 12 13 14 14 15 16 17 18 19 20 20 20 21 22 22 23 24 25 25 26 27 27
9 9 9 9 9 9 9 9 10 10 11 11 10 11 11 11 11 11 12 12 13 14 15 15 16 17 18 19 20 20 21 22 23 23 24 24 25 26 26 27 28 28 28
9 9 9 10 10 9 10 10 11 11 11 11 11 11 11 11 12 12 13 14 14 15 16 17 18 18 19 20 20 21 22 23 24 24 25 26 27 28 28 29 29 29 30
10 10 10 10 10 10 11 12 12 12 12 12 12 12 13 13 13 14 14 15 16 16 17 18 19 20 20 21 22 22 23 24 25 26 26 27 28 28 29 30 31 31 31
11 11 12 12 12 12 12 13 13 13 13 13 13 14 14 14 14 15 16 16 17 18 19 20 20 21 21 22 23 24 25 26 27 27 27 28 29 29 30 31 32 33 34
12 13 13 13 13 13 13 13 14 14 14 14 15 15 15 16 16 17 17 17 18 19 20 21 22 22 23 24 25 26 27 27 28 29 29 30 31 32 33 33 34 34 35
14 14 14 14 15 15 15 15 15 15 15 15 16 16 17 17 18 18 19 19 20 21 22 23 23 24 24 25 26 27 28 29 29 30 31 32 32 33 34 35 36 36 37
15 15 16 16 16 16 16 16 16 16 16 16 17 18 18 18 18 19 20 20 21 22 23 24 25 25 26 26 27 28 29 30 30 31 32 33 34 35 35 36 38 38 39
Wind_Direction
282 285 290 295 283 274 268 269 270 269 266 263 269 271 270 270 267 268 268 268 264 259 257 255 254 253 247 246 248 245 245 248 243 245 248 252 256 257 258 258 260 262 262
279 280 285 288 280 267 265 264 268 270 271 271 272 270 268 272 272 269 268 267 263 261 267 266 266 257 251 248 249 249 248 249 247 249 251 255 258 257 258 258 260 261 261
278 285 287 285 276 266 265 262 267 268 267 268 268 266 268 271 275 268 268 268 269 266 270 274 275 262 255 251 251 249 251 253 251 253 257 257 257 259 263 261 262 262 262
276 280 282 280 273 265 264 265 270 273 272 269 271 272 277 275 271 265 266 268 269 271 275 275 273 263 254 249 248 253 257 257 254 254 256 258 260 262 266 265 263 264 265
275 274 273 275 264 254 253 260 262 268 273 274 280 282 287 282 274 267 262 262 267 270 274 269 261 257 251 249 251 254 258 261 261 260 260 263 267 268 267 269 268 270 270
273 273 267 263 252 247 252 252 253 258 265 274 283 286 287 281 274 269 271 271 270 271 271 270 265 261 260 256 257 261 265 267 265 264 267 269 272 274 274 272 273 273 274
268 270 267 252 244 246 248 249 245 250 258 268 277 280 286 280 271 266 274 278 281 281 277 270 268 265 262 261 261 263 267 270 270 271 272 271 272 273 275 275 276 276 276
267 267 261 250 242 246 248 247 245 253 263 269 275 275 281 278 268 268 277 282 283 283 282 274 270 263 261 263 264 265 269 272 275 279 281 279 278 278 276 276 278 279 278
270 272 260 249 251 251 255 251 247 251 267 278 278 277 276 272 271 277 280 279 280 281 285 282 269 269 268 271 276 275 274 278 283 287 287 285 284 281 277 275 276 278 279
265 273 257 243 238 252 260 261 254 262 274 283 278 272 272 274 279 285 285 283 284 287 290 282 271 270 273 274 276 278 280 283 288 288 288 288 288 286 285 283 280 279 279
260 274 273 255 245 252 259 266 273 278 280 283 284 279 276 274 281 287 290 288 290 293 292 292 286 280 280 280 281 282 283 284 286 288 290 290 288 290 291 289 285 283 283
260 268 275 271 260 262 264 270 273 275 277 280 283 290 287 284 285 288 290 290 292 293 290 293 291 287 284 282 282 282 285 288 290 292 294 294 292 292 292 291 290 290 289
261 262 273 275 270 267 271 274 270 270 279 282 285 288 288 286 287 288 289 291 291 290 288 288 288 289 288 285 284 284 288 290 290 292 294 295 295 293 292 292 292 292 292
261 268 271 274 273 273 277 279 274 273 278 279 283 287 287 288 291 290 290 293 294 293 292 290 289 290 291 290 289 288 288 290 290 291 293 295 295 294 295 294 294 294 294
261 271 275 277 278 277 279 283 289 284 282 282 285 287 288 287 289 289 290 293 294 294 293 293 292 292 294 293 293 291 290 290 291 292 294 295 296 296 296 295 295 295 295
267 276 279 281 279 279 280 286 287 287 285 287 290 291 291 290 288 288 290 292 294 293 292 292 294 295 295 295 295 295 294 294 294 294 295 295 297 298 298 299 299 298 298
269 272 281 282 282 283 282 287 291 293 291 289 293 294 292 292 292 292 292 293 293 293 294 292 291 293 296 297 298 298 297 297 298 297 298 298 299 300 300 301 301 301 300
268 270 275 281 283 283 283 287 290 294 294 292 293 294 294 293 293 293 292 292 292 293 294 294 293 295 299 300 301 301 300 299 299 299 299 299 300 300 299 299 300 300 300
268 270 275 282 285 286 287 286 288 290 292 293 292 293 294 293 292 292 292 293 294 294 294 293 295 297 298 300 300 300 300 300 300 300 299 300 300 300 300 300 301 300 300
268 272 275 280 283 284 285 286 290 294 296 296 295 294 294 293 291 291 292 293 294 295 296 296 296 297 298 300 301 302 302 302 301 300 299 300 300 300 300 301 301 301 301
271 273 276 282 284 285 287 288 292 295 297 296 297 298 296 292 290 291 290 291 292 295 297 298 299 300 300 301 303 303 303 303 302 302 301 301 301 301 301 301 301 301 301
271 276 280 287 287 288 289 290 293 294 292 291 293 295 295 292 290 290 291 291 292 295 298 299 300 300 300 302 302 303 303 303 303 303 303 304 304 304 303 302 302 302 302
276 279 281 284 285 287 290 290 291 293 292 291 293 294 295 296 296 295 295 296 296 296 298 299 299 300 300 301 302 303 304 304 304 304 304 304 305 306 306 305 304 303 302
277 279 281 282 283 284 285 287 290 292 290 290 291 292 294 295 295 296 296 297 296 297 299 301 300 299 300 301 301 302 303 304 304 304 304 304 305 305 305 305 305 304 304
277 280 281 282 282 283 285 286 287 289 290 290 291 291 291 293 294 295 296 297 297 298 299 300 301 301 300 301 302 303 304 304 304 304 304 305 305 305 305 305 305 305 304
279 279 279 281 283 283 285 285 286 287 288 288 289 289 289 290 292 294 295 296 297 298 299 300 301 301 301 302 303 304 304 304 304 304 304 305 305 305 305 304 304 304 304
Height
5857 5857 5857 5856 5856 5856 5856 5856 5856 5856 5856 5856 5856 5857 5857 5857 5858 5858 5858 5858 5858 5858 5858 5859 5860 5860 5860 5861 5862 5863 5863 5864 5865 5866 5866 5867 5867 5868 5868 5868 5869 5869 5869
5856 5856 5856 5855 5855 5855 5854 5855 5855 5855 5855 5855 5855 5855 5856 5856 5856 5856 5856 5857 5857 5857 5857 5857 5857 5858 5858 5859 5860 5861 5861 5862 5863 5864 5864 5865 5865 5865 5866 5866 5866 5867 5867
5855 5854 5854 5854 5854 5854 5853 5854 5854 5854 5854 5854 5854 5854 5854 5855 5855 5855 5855 5855 5856 5856 5855 5855 5855 5855 5856 5857 5858 5859 5860 5860 5861 5861 5862 5862 5862 5863 5863 5863 5863 5863 5864
5853 5853 5853 5853 5852 5852 5853 5853 5853 5853 5853 5853 5853 5853 5853 5853 5854 5854 5854 5854 5854 5854 5854 5854 5853 5852 5853 5855 5856 5857 5858 5858 5858 5859 5859 5860 5860 5860 5860 5860 5860 5860 5860
5852 5851 5851 5851 5851 5852 5852 5852 5852 5852 5852 5852 5852 5852 5852 5852 5852 5853 5853 5853 5853 5853 5853 5853 5852 5851 5852 5853 5854 5855 5856 5856 5856 5857 5857 5857 5857 5857 5857 5857 5857 5857 5857
5850 5850 5850 5850 5850 5850 5851 5851 5851 5851 5851 5851 5851 5851 5851 5851 5851 5851 5851 5852 5852 5852 5852 5851 5851 5851 5851 5852 5853 5853 5854 5854 5854 5854 5854 5854 5854 5854 5854 5854 5854 5854 5853
5849 5849 5849 5849 5849 5849 5850 5850 5850 5850 5850 5850 5851 5851 5851 5850 5850 5851 5851 5851 5851 5850 5850 5850 5850 5850 5850 5851 5851 5852 5852 5852 5852 5852 5852 5852 5852 5851 5851 5851 5851 5850 5850
5848 5848 5848 5848 5848 5848 5849 5849 5849 5849 5849 5849 5850 5850 5850 5850 5849 5850 5850 5849 5849 5849 5849 5849 5849 5849 5849 5849 5850 5850 5850 5850 5850 5849 5849 5849 5849 5848 5848 5848 5847 5847 5846
5847 5847 5847 5847 5848 5848 5848 5848 5848 5849 5848 5848 5849 5849 5849 5849 5849 5849 5848 5848 5848 5848 5848 5847 5847 5847 5847 5848 5848 5847 5848 5848 5847 5847 5846 5846 5845 5845 5845 5844 5844 5843 5842
5847 5847 5847 5847 5847 5847 5847 5847 5848 5848 5848 5848 5848 5848 5848 5848 5848 5848 5848 5847 5847 5846 5846 5845 5845 5845 5846 5846 5845 5845 5845 5845 5845 5844 5844 5843 5842 5841 5841 5840 5840 5839 5838
5846 5846 5846 5846 5846 5847 5847 5847 5847 5847 5847 5847 5847 5847 5847 5847 5847 5846 5846 5846 5846 5845 5844 5844 5844 5844 5844 5844 5844 5843 5843 5843 5842 5841 5841 5840 5839 5838 5837 5836 5836 5835 5834
5846 5846 5845 5846 5845 5846 5846 5846 5846 5846 5846 5846 5846 5845 5845 5845 5845 5845 5845 5844 5844 5844 5843 5843 5842 5842 5842 5841 5841 5841 5840 5840 5839 5838 5838 5837 5836 5835 5834 5833 5832 5830 5829
5845 5845 5845 5845 5845 5845 5845 5845 5845 5845 5844 5844 5844 5844 5844 5843 5843 5843 5843 5843 5842 5842 5842 5841 5840 5840 5839 5839 5839 5838 5838 5837 5836 5835 5834 5833 5832 5831 5830 5828 5827 5826 5824
5844 5844 5844 5844 5844 5844 5844 5843 5843 5843 5843 5843 5843 5842 5842 5842 5842 5841 5841 5841 5841 5840 5840 5839 5838 5838 5837 5836 5836 5835 5834 5833 5832 5831 5830 5829 5828 5826 5825 5824 5822 5820 5819
5843 5843 5843 5843 5843 5842 5842 5842 5842 5841 5841 5841 5841 5840 5840 5840 5840 5839 5839 5839 5839 5838 5837 5837 5836 5835 5834 5834 5833 5832 5831 5830 5829 5827 5826 5825 5823 5822 5820 5818 5817 5815 5813
5841 5842 5842 5842 5841 5841 5841 5841 5840 5840 5839 5839 5839 5839 5838 5838 5837 5837 5837 5836 5836 5835 5835 5834 5833 5832 5832 5831 5830 5828 5827 5826 5825 5823 5822 5820 5819 5817 5815 5813 5811 5809 5807
5840 5840 5840 5840 5840 5840 5839 5839 5839 5838 5838 5837 5837 5836 5836 5835 5835 5834 5834 5834 5833 5833 5832 5831 5830 5830 5828 5827 5826 5825 5823 5822 5820 5819 5817 5816 5814 5812 5810 5808 5806 5803 5801
5839 5839 5839 5838 5838 5838 5838 5837 5837 5837 5836 5835 5835 5834 5834 5833 5832 5832 5831 5831 5830 5830 5829 5828 5827 5826 5825 5824 5822 5821 5819 5818 5816 5814 5812 5811 5809 5807 5804 5802 5800 5797 5795
5837 5837 5837 5837 5836 5836 5836 5835 5835 5835 5834 5833 5833 5832 5831 5831 5830 5829 5829 5828 5827 5827 5826 5825 5824 5822 5821 5820 5818 5817 5815 5813 5811 5809 5807 5805 5803 5801 5798 5796 5793 5790 5788
5835 5835 5835 5835 5834 5834 5834 5833 5833 5832 5831 5831 5830 5829 5829 5828 5827 5827 5826 5825 5824 5823 5822 5821 5820 5818 5817 5815 5813 5811 5809 5807 5805 5803 5801 5799 5796 5794 5791 5789 5786 5783 5780
5833 5833 5833 5833 5832 5832 5832 5831 5831 5830 5829 5828 5828 5827 5826 5825 5825 5824 5823 5822 5821 5820 5818 5817 5815 5814 5812 5810 5808 5806 5804 5802 5799 5797 5794 5792 5789 5787 5784 5781 5778 5775 5772
5831 5831 5831 5830 5830 5829 5829 5829 5828 5827 5826 5826 5825 5824 5823 5822 5821 5820 5819 5818 5817 5816 5814 5813 5811 5809 5807 5805 5803 5801 5798 5796 5794 5791 5788 5785 5782 5779 5776 5773 5770 5766 5763
5828 5828 5828 5828 5827 5827 5826 5826 5825 5824 5823 5822 5822 5821 5820 5819 5817 5816 5815 5814 5813 5811 5810 5808 5806 5804 5802 5800 5798 5795 5792 5790 5787 5784 5781 5779 5775 5772 5768 5765 5761 5758 5754
5825 5825 5825 5824 5824 5824 5823 5822 5821 5820 5820 5819 5818 5817 5816 5815 5814 5812 5811 5810 5808 5806 5805 5803 5801 5799 5796 5794 5792 5789 5786 5783 5780 5777 5774 5771 5768 5764 5760 5756 5752 5749 5745
5822 5822 5821 5821 5820 5820 5819 5818 5818 5817 5816 5815 5814 5813 5812 5811 5809 5808 5807 5805 5803 5801 5799 5797 5795 5792 5790 5787 5785 5782 5779 5776 5773 5770 5766 5763 5760 5756 5752 5748 5743 5739 5735
5818 5818 5817 5817 5816 5816 5815 5814 5813 5812 5812 5811 5810 5808 5807 5806 5805 5803 5801 5800 5798 5796 5794 5791 5789 5786 5784 5781 5778 5775 5772 5769 5765 5762 5758 5755 5751 5747 5743 5739 5734 5729 5725